Year,Month,Day,Hour,Minute,Value (Times are PST for temperature in C)
2019,11,30,00,00,12.80
2019,11,30,00,01,12.70
2019,11,30,00,02,12.70
2019,11,30,00,03,12.70
2019,11,30,00,04,12.70
2019,11,30,00,05,12.70
2019,11,30,00,06,12.70
2019,11,30,00,07,12.70
2019,11,30,00,08,12.70
2019,11,30,00,09,12.70
2019,11,30,00,10,12.70
2019,11,30,00,11,12.60
2019,11,30,00,12,12.60
2019,11,30,00,13,12.60
2019,11,30,00,14,12.60
2019,11,30,00,15,12.60
2019,11,30,00,16,12.60
2019,11,30,00,17,12.60
2019,11,30,00,18,12.60
2019,11,30,00,19,12.50
2019,11,30,00,20,12.50
2019,11,30,00,21,12.50
2019,11,30,00,22,12.50
2019,11,30,00,23,12.40
2019,11,30,00,24,12.40
2019,11,30,00,25,12.40
2019,11,30,00,26,12.30
2019,11,30,00,27,12.30
2019,11,30,00,28,12.30
2019,11,30,00,29,12.30
2019,11,30,00,30,12.30
2019,11,30,00,31,12.30
2019,11,30,00,32,12.20
2019,11,30,00,33,12.10
2019,11,30,00,34,12.00
2019,11,30,00,35,12.00
2019,11,30,00,36,12.00
2019,11,30,00,37,11.90
2019,11,30,00,38,11.90
2019,11,30,00,39,11.90
2019,11,30,00,40,11.90
2019,11,30,00,41,11.90
2019,11,30,00,42,11.90
2019,11,30,00,43,11.90
2019,11,30,00,44,11.90
2019,11,30,00,45,11.80
2019,11,30,00,46,11.80
2019,11,30,00,47,11.80
2019,11,30,00,48,11.80
2019,11,30,00,49,11.80
2019,11,30,00,50,11.80
2019,11,30,00,51,11.90
2019,11,30,00,52,11.90
2019,11,30,00,53,11.90
2019,11,30,00,54,11.90
2019,11,30,00,55,11.90
2019,11,30,00,56,11.90
2019,11,30,00,57,11.90
2019,11,30,00,58,11.90
2019,11,30,00,59,11.80
2019,11,30,01,00,11.80
2019,11,30,01,01,11.80
2019,11,30,01,02,11.80
2019,11,30,01,03,11.80
2019,11,30,01,04,11.80
2019,11,30,01,05,11.80
2019,11,30,01,06,11.90
2019,11,30,01,07,11.90
2019,11,30,01,08,11.90
2019,11,30,01,09,11.90
2019,11,30,01,10,11.90
2019,11,30,01,11,11.90
2019,11,30,01,12,11.90
2019,11,30,01,13,11.90
2019,11,30,01,14,11.90
2019,11,30,01,15,12.00
2019,11,30,01,16,12.00
2019,11,30,01,17,12.10
2019,11,30,01,18,12.10
2019,11,30,01,19,12.10
2019,11,30,01,20,12.10
2019,11,30,01,21,12.10
2019,11,30,01,22,12.10
2019,11,30,01,23,12.10
2019,11,30,01,24,12.10
2019,11,30,01,25,12.10
2019,11,30,01,26,12.00
2019,11,30,01,27,12.00
2019,11,30,01,28,12.00
2019,11,30,01,29,11.90
2019,11,30,01,30,11.90
2019,11,30,01,31,11.80
2019,11,30,01,32,11.80
2019,11,30,01,33,11.70
2019,11,30,01,34,11.70
2019,11,30,01,35,11.60
2019,11,30,01,36,11.60
2019,11,30,01,37,11.50
2019,11,30,01,38,11.50
2019,11,30,01,39,11.50
2019,11,30,01,40,11.50
2019,11,30,01,41,11.40
2019,11,30,01,42,11.40
2019,11,30,01,43,11.40
2019,11,30,01,44,11.40
2019,11,30,01,45,11.30
2019,11,30,01,46,11.30
2019,11,30,01,47,11.30
2019,11,30,01,48,11.30
2019,11,30,01,49,11.30
2019,11,30,01,50,11.30
2019,11,30,01,51,11.30
2019,11,30,01,52,11.30
2019,11,30,01,53,11.30
2019,11,30,01,54,11.30
2019,11,30,01,55,11.30
2019,11,30,01,56,11.50
2019,11,30,01,57,11.60
2019,11,30,01,58,11.70
2019,11,30,01,59,11.70
2019,11,30,02,00,11.70
2019,11,30,02,01,11.60
2019,11,30,02,02,11.60
2019,11,30,02,03,11.50
2019,11,30,02,04,11.40
2019,11,30,02,05,11.40
2019,11,30,02,06,11.30
2019,11,30,02,07,11.30
2019,11,30,02,08,11.30
2019,11,30,02,09,11.30
2019,11,30,02,10,11.30
2019,11,30,02,11,11.40
2019,11,30,02,12,11.50
2019,11,30,02,13,11.60
2019,11,30,02,14,11.60
2019,11,30,02,15,11.60
2019,11,30,02,16,11.70
2019,11,30,02,17,11.70
2019,11,30,02,18,11.60
2019,11,30,02,19,11.60
2019,11,30,02,20,11.60
2019,11,30,02,21,11.60
2019,11,30,02,22,11.50
2019,11,30,02,23,11.50
2019,11,30,02,24,11.50
2019,11,30,02,25,11.40
2019,11,30,02,26,11.40
2019,11,30,02,27,11.40
2019,11,30,02,28,11.40
2019,11,30,02,29,11.40
2019,11,30,02,30,11.40
2019,11,30,02,31,11.50
2019,11,30,02,32,11.60
2019,11,30,02,33,11.70
2019,11,30,02,34,11.70
2019,11,30,02,35,11.70
2019,11,30,02,36,11.70
2019,11,30,02,37,11.70
2019,11,30,02,38,11.70
2019,11,30,02,39,11.80
2019,11,30,02,40,11.80
2019,11,30,02,41,11.80
2019,11,30,02,42,11.80
2019,11,30,02,43,11.80
2019,11,30,02,44,11.80
2019,11,30,02,45,11.80
2019,11,30,02,46,11.80
2019,11,30,02,47,11.90
2019,11,30,02,48,11.90
2019,11,30,02,49,12.00
2019,11,30,02,50,12.00
2019,11,30,02,51,12.10
2019,11,30,02,52,12.20
2019,11,30,02,53,12.20
2019,11,30,02,54,12.20
2019,11,30,02,55,12.20
2019,11,30,02,56,12.20
2019,11,30,02,57,12.30
2019,11,30,02,58,12.30
2019,11,30,02,59,12.30
2019,11,30,03,00,12.30
2019,11,30,03,01,12.40
2019,11,30,03,02,12.40
2019,11,30,03,03,12.40
2019,11,30,03,04,12.50
2019,11,30,03,05,12.50
2019,11,30,03,06,12.50
2019,11,30,03,07,12.40
2019,11,30,03,08,12.40
2019,11,30,03,09,12.40
2019,11,30,03,10,12.30
2019,11,30,03,11,12.30
2019,11,30,03,12,12.20
2019,11,30,03,13,12.20
2019,11,30,03,14,12.10
2019,11,30,03,15,12.10
2019,11,30,03,16,12.00
2019,11,30,03,17,12.00
2019,11,30,03,18,11.90
2019,11,30,03,19,11.90
2019,11,30,03,20,11.80
2019,11,30,03,21,11.80
2019,11,30,03,22,11.80
2019,11,30,03,23,11.70
2019,11,30,03,24,11.70
2019,11,30,03,25,11.60
2019,11,30,03,26,11.60
2019,11,30,03,27,11.50
2019,11,30,03,28,11.40
2019,11,30,03,29,11.40
2019,11,30,03,30,11.30
2019,11,30,03,31,11.30
2019,11,30,03,32,11.30
2019,11,30,03,33,11.30
2019,11,30,03,34,11.30
2019,11,30,03,35,11.20
2019,11,30,03,36,11.20
2019,11,30,03,37,11.20
2019,11,30,03,38,11.20
2019,11,30,03,39,11.20
2019,11,30,03,40,11.20
2019,11,30,03,41,11.20
2019,11,30,03,42,11.20
2019,11,30,03,43,11.30
2019,11,30,03,44,11.30
2019,11,30,03,45,11.30
2019,11,30,03,46,11.30
2019,11,30,03,47,11.30
2019,11,30,03,48,11.30
2019,11,30,03,49,11.30
2019,11,30,03,50,11.30
2019,11,30,03,51,11.30
2019,11,30,03,52,11.30
2019,11,30,03,53,11.30
2019,11,30,03,54,11.30
2019,11,30,03,55,11.30
2019,11,30,03,56,11.30
2019,11,30,03,57,11.30
2019,11,30,03,58,11.30
2019,11,30,03,59,11.30
2019,11,30,04,00,11.40
2019,11,30,04,01,11.40
2019,11,30,04,02,11.40
2019,11,30,04,03,11.40
2019,11,30,04,04,11.50
2019,11,30,04,05,11.50
2019,11,30,04,06,11.50
2019,11,30,04,07,11.50
2019,11,30,04,08,11.50
2019,11,30,04,09,11.50
2019,11,30,04,10,11.40
2019,11,30,04,11,11.40
2019,11,30,04,12,11.40
2019,11,30,04,13,11.40
2019,11,30,04,14,11.30
2019,11,30,04,15,11.30
2019,11,30,04,16,11.30
2019,11,30,04,17,11.20
2019,11,30,04,18,11.20
2019,11,30,04,19,11.10
2019,11,30,04,20,11.00
2019,11,30,04,21,11.00
2019,11,30,04,22,10.90
2019,11,30,04,23,10.80
2019,11,30,04,24,10.80
2019,11,30,04,25,10.80
2019,11,30,04,26,10.90
2019,11,30,04,27,10.90
2019,11,30,04,28,11.00
2019,11,30,04,29,11.10
2019,11,30,04,30,11.10
2019,11,30,04,31,11.10
2019,11,30,04,32,11.10
2019,11,30,04,33,11.10
2019,11,30,04,34,11.10
2019,11,30,04,35,11.10
2019,11,30,04,36,11.10
2019,11,30,04,37,11.10
2019,11,30,04,38,11.10
2019,11,30,04,39,11.00
2019,11,30,04,40,11.00
2019,11,30,04,41,10.90
2019,11,30,04,42,10.90
2019,11,30,04,43,10.80
2019,11,30,04,44,10.80
2019,11,30,04,45,10.80
2019,11,30,04,46,10.90
2019,11,30,04,47,10.90
2019,11,30,04,48,10.90
2019,11,30,04,49,10.90
2019,11,30,04,50,10.80
2019,11,30,04,51,10.80
2019,11,30,04,52,10.80
2019,11,30,04,53,10.80
2019,11,30,04,54,10.80
2019,11,30,04,55,10.80
2019,11,30,04,56,10.90
2019,11,30,04,57,10.90
2019,11,30,04,58,11.00
2019,11,30,04,59,11.10
2019,11,30,05,00,11.10
2019,11,30,05,01,11.10
2019,11,30,05,02,11.00
2019,11,30,05,03,11.00
2019,11,30,05,04,10.90
2019,11,30,05,05,10.80
2019,11,30,05,06,10.80
2019,11,30,05,07,10.80
2019,11,30,05,08,10.80
2019,11,30,05,09,10.70
2019,11,30,05,10,10.70
2019,11,30,05,11,10.70
2019,11,30,05,12,10.70
2019,11,30,05,13,10.70
2019,11,30,05,14,10.70
2019,11,30,05,15,10.80
2019,11,30,05,16,10.80
2019,11,30,05,17,10.80
2019,11,30,05,18,10.80
2019,11,30,05,19,10.80
2019,11,30,05,20,10.80
2019,11,30,05,21,10.90
2019,11,30,05,22,10.90
2019,11,30,05,23,11.00
2019,11,30,05,24,11.00
2019,11,30,05,25,11.10
2019,11,30,05,26,11.10
2019,11,30,05,27,11.20
2019,11,30,05,28,11.20
2019,11,30,05,29,11.30
2019,11,30,05,30,11.30
2019,11,30,05,31,11.30
2019,11,30,05,32,11.20
2019,11,30,05,33,11.20
2019,11,30,05,34,11.10
2019,11,30,05,35,11.10
2019,11,30,05,36,11.10
2019,11,30,05,37,11.10
2019,11,30,05,38,11.10
2019,11,30,05,39,11.00
2019,11,30,05,40,11.00
2019,11,30,05,41,11.10
2019,11,30,05,42,11.10
2019,11,30,05,43,11.20
2019,11,30,05,44,11.20
2019,11,30,05,45,11.20
2019,11,30,05,46,11.20
2019,11,30,05,47,11.10
2019,11,30,05,48,11.10
2019,11,30,05,49,11.00
2019,11,30,05,50,11.00
2019,11,30,05,51,10.90
2019,11,30,05,52,10.90
2019,11,30,05,53,10.80
2019,11,30,05,54,10.80
2019,11,30,05,55,10.80
2019,11,30,05,56,10.70
2019,11,30,05,57,10.70
2019,11,30,05,58,10.70
2019,11,30,05,59,10.80
2019,11,30,06,00,10.90
2019,11,30,06,01,10.90
2019,11,30,06,02,11.00
2019,11,30,06,03,11.10
2019,11,30,06,04,11.20
2019,11,30,06,05,11.30
2019,11,30,06,06,11.30
2019,11,30,06,07,11.30
2019,11,30,06,08,11.30
2019,11,30,06,09,11.20
2019,11,30,06,10,11.20
2019,11,30,06,11,11.20
2019,11,30,06,12,11.10
2019,11,30,06,13,11.10
2019,11,30,06,14,11.00
2019,11,30,06,15,11.00
2019,11,30,06,16,11.00
2019,11,30,06,17,11.00
2019,11,30,06,18,11.00
2019,11,30,06,19,11.00
2019,11,30,06,20,10.90
2019,11,30,06,21,10.90
2019,11,30,06,22,10.90
2019,11,30,06,23,10.90
2019,11,30,06,24,10.90
2019,11,30,06,25,10.90
2019,11,30,06,26,10.90
2019,11,30,06,27,10.90
2019,11,30,06,28,10.90
2019,11,30,06,29,11.00
2019,11,30,06,30,11.00
2019,11,30,06,31,11.00
2019,11,30,06,32,10.90
2019,11,30,06,33,10.90
2019,11,30,06,34,11.00
2019,11,30,06,35,11.00
2019,11,30,06,36,11.00
2019,11,30,06,37,11.00
2019,11,30,06,38,10.90
2019,11,30,06,39,10.90
2019,11,30,06,40,10.90
2019,11,30,06,41,10.90
2019,11,30,06,42,10.90
2019,11,30,06,43,10.90
2019,11,30,06,44,10.90
2019,11,30,06,45,10.90
2019,11,30,06,46,10.90
2019,11,30,06,47,10.90
2019,11,30,06,48,10.90
2019,11,30,06,49,10.90
2019,11,30,06,50,10.90
2019,11,30,06,51,10.80
2019,11,30,06,52,10.80
2019,11,30,06,53,10.80
2019,11,30,06,54,10.80
2019,11,30,06,55,10.80
2019,11,30,06,56,10.80
2019,11,30,06,57,10.80
2019,11,30,06,58,10.80
2019,11,30,06,59,10.70
2019,11,30,07,00,10.70
2019,11,30,07,01,10.70
2019,11,30,07,02,10.60
2019,11,30,07,03,10.60
2019,11,30,07,04,10.60
2019,11,30,07,05,10.60
2019,11,30,07,06,10.60
2019,11,30,07,07,10.60
2019,11,30,07,08,10.70
2019,11,30,07,09,10.70
2019,11,30,07,10,10.70
2019,11,30,07,11,10.70
2019,11,30,07,12,10.70
2019,11,30,07,13,10.70
2019,11,30,07,14,10.70
2019,11,30,07,15,10.60
2019,11,30,07,16,10.50
2019,11,30,07,17,10.50
2019,11,30,07,18,10.50
2019,11,30,07,19,10.50
2019,11,30,07,20,10.40
2019,11,30,07,21,10.40
2019,11,30,07,22,10.40
2019,11,30,07,23,10.40
2019,11,30,07,24,10.40
2019,11,30,07,25,10.30
2019,11,30,07,26,10.30
2019,11,30,07,27,10.30
2019,11,30,07,28,10.30
2019,11,30,07,29,10.30
2019,11,30,07,30,10.40
2019,11,30,07,31,10.40
2019,11,30,07,32,10.50
2019,11,30,07,33,10.50
2019,11,30,07,34,10.50
2019,11,30,07,35,10.50
2019,11,30,07,36,10.60
2019,11,30,07,37,10.60
2019,11,30,07,38,10.60
2019,11,30,07,39,10.60
2019,11,30,07,40,10.60
2019,11,30,07,41,10.60
2019,11,30,07,42,10.60
2019,11,30,07,43,10.50
2019,11,30,07,44,10.50
2019,11,30,07,45,10.50
2019,11,30,07,46,10.50
2019,11,30,07,47,10.50
2019,11,30,07,48,10.50
2019,11,30,07,49,10.60
2019,11,30,07,50,10.60
2019,11,30,07,51,10.60
2019,11,30,07,52,10.60
2019,11,30,07,53,10.60
2019,11,30,07,54,10.70
2019,11,30,07,55,10.70
2019,11,30,07,56,10.80
2019,11,30,07,57,10.80
2019,11,30,07,58,10.80
2019,11,30,07,59,10.80
2019,11,30,08,00,10.70
2019,11,30,08,01,10.60
2019,11,30,08,02,10.60
2019,11,30,08,03,10.40
2019,11,30,08,04,10.40
2019,11,30,08,05,10.30
2019,11,30,08,06,10.30
2019,11,30,08,07,10.30
2019,11,30,08,08,10.30
2019,11,30,08,09,10.40
2019,11,30,08,10,10.50
2019,11,30,08,11,10.60
2019,11,30,08,12,10.60
2019,11,30,08,13,10.60
2019,11,30,08,14,10.60
2019,11,30,08,15,10.60
2019,11,30,08,16,10.60
2019,11,30,08,17,10.50
2019,11,30,08,18,10.50
2019,11,30,08,19,10.50
2019,11,30,08,20,10.50
2019,11,30,08,21,10.50
2019,11,30,08,22,10.50
2019,11,30,08,23,10.50
2019,11,30,08,24,10.60
2019,11,30,08,25,10.50
2019,11,30,08,26,10.60
2019,11,30,08,27,10.60
2019,11,30,08,28,10.70
2019,11,30,08,29,10.80
2019,11,30,08,30,11.00
2019,11,30,08,31,11.10
2019,11,30,08,32,11.30
2019,11,30,08,33,11.40
2019,11,30,08,34,11.50
2019,11,30,08,35,11.70
2019,11,30,08,36,11.80
2019,11,30,08,37,11.80
2019,11,30,08,38,11.80
2019,11,30,08,39,11.80
2019,11,30,08,40,11.80
2019,11,30,08,41,11.70
2019,11,30,08,42,11.70
2019,11,30,08,43,11.60
2019,11,30,08,44,11.60
2019,11,30,08,45,11.60
2019,11,30,08,46,11.60
2019,11,30,08,47,11.60
2019,11,30,08,48,11.60
2019,11,30,08,49,11.60
2019,11,30,08,50,11.60
2019,11,30,08,51,11.60
2019,11,30,08,52,11.60
2019,11,30,08,53,11.60
2019,11,30,08,54,11.70
2019,11,30,08,55,11.70
2019,11,30,08,56,11.70
2019,11,30,08,57,11.70
2019,11,30,08,58,11.70
2019,11,30,08,59,11.70
2019,11,30,09,00,11.70
2019,11,30,09,01,11.70
2019,11,30,09,02,11.80
2019,11,30,09,03,11.80
2019,11,30,09,04,11.80
2019,11,30,09,05,11.80
2019,11,30,09,06,11.80
2019,11,30,09,07,11.80
2019,11,30,09,08,11.80
2019,11,30,09,09,11.90
2019,11,30,09,10,11.90
2019,11,30,09,11,11.90
2019,11,30,09,12,11.80
2019,11,30,09,13,11.80
2019,11,30,09,14,11.80
2019,11,30,09,15,11.80
2019,11,30,09,16,11.80
2019,11,30,09,17,11.80
2019,11,30,09,18,11.80
2019,11,30,09,19,11.70
2019,11,30,09,20,11.70
2019,11,30,09,21,11.70
2019,11,30,09,22,11.70
2019,11,30,09,23,11.70
2019,11,30,09,24,11.80
2019,11,30,09,25,11.80
2019,11,30,09,26,11.90
2019,11,30,09,27,12.00
2019,11,30,09,28,12.00
2019,11,30,09,29,12.10
2019,11,30,09,30,12.20
2019,11,30,09,31,12.30
2019,11,30,09,32,12.30
2019,11,30,09,33,12.30
2019,11,30,09,34,12.20
2019,11,30,09,35,12.20
2019,11,30,09,36,12.10
2019,11,30,09,37,12.00
2019,11,30,09,38,12.00
2019,11,30,09,39,11.90
2019,11,30,09,40,11.90
2019,11,30,09,41,11.90
2019,11,30,09,42,11.90
2019,11,30,09,43,11.80
2019,11,30,09,44,11.80
2019,11,30,09,45,11.80
2019,11,30,09,46,11.80
2019,11,30,09,47,11.80
2019,11,30,09,48,11.70
2019,11,30,09,49,11.70
2019,11,30,09,50,11.70
2019,11,30,09,51,11.80
2019,11,30,09,52,11.80
2019,11,30,09,53,11.80
2019,11,30,09,54,11.90
2019,11,30,09,55,11.90
2019,11,30,09,56,11.90
2019,11,30,09,57,11.90
2019,11,30,09,58,12.00
2019,11,30,09,59,12.00
2019,11,30,10,00,12.10
2019,11,30,10,01,12.10
2019,11,30,10,02,12.10
2019,11,30,10,03,12.20
2019,11,30,10,04,12.20
2019,11,30,10,05,12.20
2019,11,30,10,06,12.20
2019,11,30,10,07,12.10
2019,11,30,10,08,12.10
2019,11,30,10,09,12.10
2019,11,30,10,10,12.00
2019,11,30,10,11,12.00
2019,11,30,10,12,12.00
2019,11,30,10,13,12.00
2019,11,30,10,14,12.00
2019,11,30,10,15,12.00
2019,11,30,10,16,12.10
2019,11,30,10,17,12.10
2019,11,30,10,18,12.20
2019,11,30,10,19,12.30
2019,11,30,10,20,12.30
2019,11,30,10,21,12.30
2019,11,30,10,22,12.30
2019,11,30,10,23,12.40
2019,11,30,10,24,12.40
2019,11,30,10,25,12.40
2019,11,30,10,26,12.40
2019,11,30,10,27,12.40
2019,11,30,10,28,12.50
2019,11,30,10,29,12.50
2019,11,30,10,30,12.60
2019,11,30,10,31,12.70
2019,11,30,10,32,12.80
2019,11,30,10,33,12.80
2019,11,30,10,34,12.90
2019,11,30,10,35,12.90
2019,11,30,10,36,12.90
2019,11,30,10,37,12.90
2019,11,30,10,38,13.00
2019,11,30,10,39,13.00
2019,11,30,10,40,13.10
2019,11,30,10,41,13.10
2019,11,30,10,42,13.20
2019,11,30,10,43,13.20
2019,11,30,10,44,13.30
2019,11,30,10,45,13.30
2019,11,30,10,46,13.30
2019,11,30,10,47,13.30
2019,11,30,10,48,13.40
2019,11,30,10,49,13.40
2019,11,30,10,50,13.50
2019,11,30,10,51,13.60
2019,11,30,10,52,13.70
2019,11,30,10,53,13.80
2019,11,30,10,54,13.80
2019,11,30,10,55,13.80
2019,11,30,10,56,13.90
2019,11,30,10,57,13.90
2019,11,30,10,58,13.90
2019,11,30,10,59,13.90
2019,11,30,11,00,13.90
2019,11,30,11,01,13.90
2019,11,30,11,02,13.90
2019,11,30,11,03,13.90
2019,11,30,11,04,14.00
2019,11,30,11,05,14.00
2019,11,30,11,06,14.10
2019,11,30,11,07,14.10
2019,11,30,11,08,14.20
2019,11,30,11,09,14.30
2019,11,30,11,10,14.30
2019,11,30,11,11,14.40
2019,11,30,11,12,14.50
2019,11,30,11,13,14.60
2019,11,30,11,14,14.70
2019,11,30,11,15,14.80
2019,11,30,11,16,14.90
2019,11,30,11,17,15.10
2019,11,30,11,18,15.20
2019,11,30,11,19,15.30
2019,11,30,11,20,15.50
2019,11,30,11,21,15.60
2019,11,30,11,22,15.70
2019,11,30,11,23,15.80
2019,11,30,11,24,15.90
2019,11,30,11,25,16.10
2019,11,30,11,26,16.20
2019,11,30,11,27,16.40
2019,11,30,11,28,16.50
2019,11,30,11,29,16.70
2019,11,30,11,30,16.80
2019,11,30,11,31,17.00
2019,11,30,11,32,17.20
2019,11,30,11,33,17.40
2019,11,30,11,34,17.50
2019,11,30,11,35,17.70
2019,11,30,11,36,17.80
2019,11,30,11,37,17.90
2019,11,30,11,38,18.10
2019,11,30,11,39,18.20
2019,11,30,11,40,18.30
2019,11,30,11,41,18.50
2019,11,30,11,42,18.70
2019,11,30,11,43,18.80
2019,11,30,11,44,18.90
2019,11,30,11,45,18.90
2019,11,30,11,46,19.00
2019,11,30,11,47,19.00
2019,11,30,11,48,19.00
2019,11,30,11,49,19.10
2019,11,30,11,50,19.10
2019,11,30,11,51,19.20
2019,11,30,11,52,19.20
2019,11,30,11,53,19.30
2019,11,30,11,54,19.30
2019,11,30,11,55,19.40
2019,11,30,11,56,19.40
2019,11,30,11,57,19.50
2019,11,30,11,58,19.60
2019,11,30,11,59,19.60
2019,11,30,12,00,19.70
2019,11,30,12,01,19.70
2019,11,30,12,02,19.70
2019,11,30,12,03,19.70
2019,11,30,12,04,19.70
2019,11,30,12,05,19.70
2019,11,30,12,06,19.70
2019,11,30,12,07,19.70
2019,11,30,12,08,19.70
2019,11,30,12,09,19.70
2019,11,30,12,10,19.70
2019,11,30,12,11,19.70
2019,11,30,12,12,19.70
2019,11,30,12,13,19.70
2019,11,30,12,14,19.80
2019,11,30,12,15,19.80
2019,11,30,12,16,19.80
2019,11,30,12,17,19.80
2019,11,30,12,18,19.90
2019,11,30,12,19,19.90
2019,11,30,12,20,20.00
2019,11,30,12,21,20.10
2019,11,30,12,22,20.20
2019,11,30,12,23,20.30
2019,11,30,12,24,20.50
2019,11,30,12,25,20.60
2019,11,30,12,26,20.70
2019,11,30,12,27,20.80
2019,11,30,12,28,20.90
2019,11,30,12,29,21.00
2019,11,30,12,30,21.10
2019,11,30,12,31,21.10
2019,11,30,12,32,21.20
2019,11,30,12,33,21.20
2019,11,30,12,34,21.20
2019,11,30,12,35,21.20
2019,11,30,12,36,21.30
2019,11,30,12,37,21.30
2019,11,30,12,38,21.30
2019,11,30,12,39,21.30
2019,11,30,12,40,21.30
2019,11,30,12,41,21.40
2019,11,30,12,42,21.50
2019,11,30,12,43,21.60
2019,11,30,12,44,21.70
2019,11,30,12,45,21.70
2019,11,30,12,46,21.80
2019,11,30,12,47,21.90
2019,11,30,12,48,22.00
2019,11,30,12,49,22.20
2019,11,30,12,50,22.30
2019,11,30,12,51,22.40
2019,11,30,12,52,22.60
2019,11,30,12,53,22.70
2019,11,30,12,54,22.80
2019,11,30,12,55,22.90
2019,11,30,12,56,23.00
2019,11,30,12,57,23.10
2019,11,30,12,58,23.20
2019,11,30,12,59,23.30
2019,11,30,13,00,23.30
2019,11,30,13,01,23.40
2019,11,30,13,02,23.40
2019,11,30,13,03,23.40
2019,11,30,13,04,23.40
2019,11,30,13,05,23.40
2019,11,30,13,06,23.30
2019,11,30,13,07,23.30
2019,11,30,13,08,23.20
2019,11,30,13,09,23.20
2019,11,30,13,10,23.10
2019,11,30,13,11,23.10
2019,11,30,13,12,23.00
2019,11,30,13,13,23.00
2019,11,30,13,14,22.90
2019,11,30,13,15,22.90
2019,11,30,13,16,22.90
2019,11,30,13,17,23.00
2019,11,30,13,18,22.90
2019,11,30,13,19,23.00
2019,11,30,13,20,23.00
2019,11,30,13,21,23.00
2019,11,30,13,22,23.10
2019,11,30,13,23,23.20
2019,11,30,13,24,23.20
2019,11,30,13,25,23.30
2019,11,30,13,26,23.30
2019,11,30,13,27,23.30
2019,11,30,13,28,23.20
2019,11,30,13,29,23.20
2019,11,30,13,30,23.20
2019,11,30,13,31,23.20
2019,11,30,13,32,23.10
2019,11,30,13,33,23.10
2019,11,30,13,34,23.10
2019,11,30,13,35,23.20
2019,11,30,13,36,23.20
2019,11,30,13,37,23.20
2019,11,30,13,38,23.20
2019,11,30,13,39,23.30
2019,11,30,13,40,23.30
2019,11,30,13,41,23.30
2019,11,30,13,42,23.40
2019,11,30,13,43,23.40
2019,11,30,13,44,23.40
2019,11,30,13,45,23.40
2019,11,30,13,46,23.50
2019,11,30,13,47,23.50
2019,11,30,13,48,23.60
2019,11,30,13,49,23.60
2019,11,30,13,50,23.60
2019,11,30,13,51,23.70
2019,11,30,13,52,23.70
2019,11,30,13,53,23.70
2019,11,30,13,54,23.70
2019,11,30,13,55,23.70
2019,11,30,13,56,23.70
2019,11,30,13,57,23.80
2019,11,30,13,58,23.80
2019,11,30,13,59,23.80
2019,11,30,14,00,23.80
2019,11,30,14,01,23.90
2019,11,30,14,02,23.90
2019,11,30,14,03,23.90
2019,11,30,14,04,23.90
2019,11,30,14,05,23.90
2019,11,30,14,06,23.90
2019,11,30,14,07,23.90
2019,11,30,14,08,23.90
2019,11,30,14,09,23.80
2019,11,30,14,10,23.70
2019,11,30,14,11,23.70
2019,11,30,14,12,23.60
2019,11,30,14,13,23.50
2019,11,30,14,14,23.40
2019,11,30,14,15,23.40
2019,11,30,14,16,23.30
2019,11,30,14,17,23.30
2019,11,30,14,18,23.30
2019,11,30,14,19,23.30
2019,11,30,14,20,23.30
2019,11,30,14,21,23.30
2019,11,30,14,22,23.30
2019,11,30,14,23,23.40
2019,11,30,14,24,23.40
2019,11,30,14,25,23.40
2019,11,30,14,26,23.50
2019,11,30,14,27,23.50
2019,11,30,14,28,23.60
2019,11,30,14,29,23.60
2019,11,30,14,30,23.70
2019,11,30,14,31,23.70
2019,11,30,14,32,23.80
2019,11,30,14,33,23.90
2019,11,30,14,34,23.90
2019,11,30,14,35,24.00
2019,11,30,14,36,24.00
2019,11,30,14,37,24.10
2019,11,30,14,38,24.10
2019,11,30,14,39,24.10
2019,11,30,14,40,24.10
2019,11,30,14,41,24.20
2019,11,30,14,42,24.20
2019,11,30,14,43,24.20
2019,11,30,14,44,24.20
2019,11,30,14,45,24.30
2019,11,30,14,46,24.30
2019,11,30,14,47,24.40
2019,11,30,14,48,24.40
2019,11,30,14,49,24.40
2019,11,30,14,50,24.40
2019,11,30,14,51,24.40
2019,11,30,14,52,24.40
2019,11,30,14,53,24.40
2019,11,30,14,54,24.40
2019,11,30,14,55,24.30
2019,11,30,14,56,24.30
2019,11,30,14,57,24.30
2019,11,30,14,58,24.20
2019,11,30,14,59,24.20
2019,11,30,15,00,24.10
2019,11,30,15,01,24.10
2019,11,30,15,02,24.00
2019,11,30,15,03,23.90
2019,11,30,15,04,23.80
2019,11,30,15,05,23.80
2019,11,30,15,06,23.70
2019,11,30,15,07,23.70
2019,11,30,15,08,23.60
2019,11,30,15,09,23.50
2019,11,30,15,10,23.40
2019,11,30,15,11,23.30
2019,11,30,15,12,23.10
2019,11,30,15,13,23.00
2019,11,30,15,14,22.90
2019,11,30,15,15,22.80
2019,11,30,15,16,22.60
2019,11,30,15,17,22.50
2019,11,30,15,18,22.40
2019,11,30,15,19,22.30
2019,11,30,15,20,22.20
2019,11,30,15,21,22.10
2019,11,30,15,22,22.00
2019,11,30,15,23,21.90
2019,11,30,15,24,21.80
2019,11,30,15,25,21.70
2019,11,30,15,26,21.60
2019,11,30,15,27,21.50
2019,11,30,15,28,21.50
2019,11,30,15,29,21.40
2019,11,30,15,30,21.40
2019,11,30,15,31,21.30
2019,11,30,15,32,21.30
2019,11,30,15,33,21.20
2019,11,30,15,34,21.20
2019,11,30,15,35,21.10
2019,11,30,15,36,21.00
2019,11,30,15,37,21.00
2019,11,30,15,38,20.90
2019,11,30,15,39,20.90
2019,11,30,15,40,20.80
2019,11,30,15,41,20.80
2019,11,30,15,42,20.80
2019,11,30,15,43,20.70
2019,11,30,15,44,20.60
2019,11,30,15,45,20.60
2019,11,30,15,46,20.50
2019,11,30,15,47,20.50
2019,11,30,15,48,20.40
2019,11,30,15,49,20.30
2019,11,30,15,50,20.30
2019,11,30,15,51,20.20
2019,11,30,15,52,20.10
2019,11,30,15,53,20.10
2019,11,30,15,54,20.00
2019,11,30,15,55,19.90
2019,11,30,15,56,19.80
2019,11,30,15,57,19.70
2019,11,30,15,58,19.70
2019,11,30,15,59,19.60
2019,11,30,16,00,19.50
2019,11,30,16,01,19.40
2019,11,30,16,02,19.40
2019,11,30,16,03,19.40
2019,11,30,16,04,19.30
2019,11,30,16,05,19.30
2019,11,30,16,06,19.20
2019,11,30,16,07,19.20
2019,11,30,16,08,19.10
2019,11,30,16,09,19.10
2019,11,30,16,10,19.00
2019,11,30,16,11,18.90
2019,11,30,16,12,18.80
2019,11,30,16,13,18.80
2019,11,30,16,14,18.70
2019,11,30,16,15,18.60
2019,11,30,16,16,18.50
2019,11,30,16,17,18.50
2019,11,30,16,18,18.40
2019,11,30,16,19,18.30
2019,11,30,16,20,18.30
2019,11,30,16,21,18.30
2019,11,30,16,22,18.20
2019,11,30,16,23,18.20
2019,11,30,16,24,18.20
2019,11,30,16,25,18.10
2019,11,30,16,26,18.10
2019,11,30,16,27,18.00
2019,11,30,16,28,18.00
2019,11,30,16,29,17.90
2019,11,30,16,30,17.90
2019,11,30,16,31,17.90
2019,11,30,16,32,17.80
2019,11,30,16,33,17.70
2019,11,30,16,34,17.70
2019,11,30,16,35,17.70
2019,11,30,16,36,17.70
2019,11,30,16,37,17.70
2019,11,30,16,38,17.70
2019,11,30,16,39,17.60
2019,11,30,16,40,17.60
2019,11,30,16,41,17.50
2019,11,30,16,42,17.40
2019,11,30,16,43,17.30
2019,11,30,16,44,17.20
2019,11,30,16,45,17.10
2019,11,30,16,46,17.10
2019,11,30,16,47,17.00
2019,11,30,16,48,16.90
2019,11,30,16,49,16.90
2019,11,30,16,50,16.90
2019,11,30,16,51,16.80
2019,11,30,16,52,16.80
2019,11,30,16,53,16.80
2019,11,30,16,54,16.70
2019,11,30,16,55,16.70
2019,11,30,16,56,16.70
2019,11,30,16,57,16.70
2019,11,30,16,58,16.70
2019,11,30,16,59,16.70
2019,11,30,17,00,16.70
2019,11,30,17,01,16.70
2019,11,30,17,02,16.70
2019,11,30,17,03,16.70
2019,11,30,17,04,16.70
2019,11,30,17,05,16.60
2019,11,30,17,06,16.60
2019,11,30,17,07,16.60
2019,11,30,17,08,16.50
2019,11,30,17,09,16.50
2019,11,30,17,10,16.50
2019,11,30,17,11,16.40
2019,11,30,17,12,16.40
2019,11,30,17,13,16.30
2019,11,30,17,14,16.30
2019,11,30,17,15,16.30
2019,11,30,17,16,16.30
2019,11,30,17,17,16.30
2019,11,30,17,18,16.30
2019,11,30,17,19,16.20